Theta_e
293 294 294 296 298 299 301 301 301 303 306 308 306 303 300 298 297 297 298 300 301 302 304 305 306 307 306 306 306 308 307 306 304 306 309 309 306 304 304 305 305 303 301
292 292 293 294 295 296 298 299 300 301 302 303 302 300 296 294 294 294 293 294 295 296 297 299 299 300 301 300 301 303 305 305 304 301 304 304 306 303 305 306 303 302 303
292 292 292 292 294 293 294 295 297 298 299 299 297 296 295 294 292 291 291 291 292 292 292 292 293 293 295 294 296 298 299 299 301 301 299 298 298 298 304 304 302 303 302
292 291 291 291 291 291 292 293 294 294 295 296 296 296 293 289 289 289 290 290 291 290 291 291 291 291 291 291 291 291 293 294 293 299 298 300 297 294 294 300 301 300 300
292 290 289 289 288 290 291 291 291 291 292 292 293 291 289 289 289 289 289 289 289 289 289 289 289 289 289 289 289 290 290 290 289 289 290 292 294 297 292 290 293 294 295
290 289 289 288 287 288 289 289 289 288 289 290 290 290 289 288 288 288 288 288 288 288 288 288 288 288 288 288 288 288 288 288 288 288 289 288 287 286 286 285 286 288 290
289 288 287 287 286 287 287 287 287 286 288 288 288 288 288 289 288 288 288 287 287 286 286 287 286 286 286 286 287 286 286 286 286 286 286 287 287 287 287 286 285 285 288
289 288 288 287 286 286 286 286 286 285 287 287 287 288 288 288 287 287 287 286 286 285 286 285 285 285 284 284 285 285 285 285 285 284 285 285 285 286 285 284 283 282 284
289 288 288 287 287 287 287 287 286 286 286 287 287 287 287 287 286 286 286 286 286 284 285 284 284 284 284 283 284 284 283 284 284 284 284 284 285 285 285 285 284 282 279
289 289 288 287 287 287 287 286 286 286 286 286 287 286 286 286 286 286 285 285 285 284 283 283 283 283 283 283 283 283 283 282 283 282 282 282 283 283 284 284 284 284 281
289 289 289 288 287 287 287 286 286 286 286 286 286 286 286 286 286 285 285 284 284 283 282 282 281 281 281 281 281 281 281 280 281 282 281 281 282 281 282 282 282 282 282
291 290 290 289 286 285 286 286 286 286 286 286 286 286 285 285 285 285 284 284 282 282 281 280 280 279 279 279 279 279 279 279 279 279 279 279 279 279 280 281 280 280 281
291 290 290 289 288 286 285 285 286 286 286 285 285 285 285 285 285 284 283 282 281 280 279 278 278 277 277 277 278 278 278 278 278 278 277 277 277 277 277 277 277 278 279
291 290 290 290 290 288 286 285 285 286 285 285 285 285 285 285 284 283 282 280 279 278 277 277 276 276 276 276 276 277 278 278 277 277 277 276 276 275 275 275 275 276 277
290 291 291 291 290 288 287 286 285 285 285 284 284 285 285 285 283 281 279 278 277 276 276 275 275 275 274 275 276 277 277 276 276 276 276 275 275 275 275 275 275 274 274
291 291 291 291 289 288 287 286 285 284 285 284 284 285 284 282 280 278 277 276 275 275 274 273 273 273 273 273 276 276 276 275 274 274 274 274 274 274 275 275 276 276 274
291 290 290 290 289 288 288 286 285 285 284 283 283 283 282 280 279 277 275 275 274 274 273 272 272 272 272 272 275 275 275 275 274 273 273 273 273 273 273 274 275 275 276
289 289 289 289 289 288 287 287 286 284 282 283 282 281 280 279 277 275 274 274 273 272 272 272 271 271 271 272 273 275 275 274 273 273 273 273 273 273 273 273 274 274 275
290 290 291 290 288 287 287 285 282 282 282 281 281 280 279 277 275 273 273 273 272 271 271 271 270 269 269 271 273 273 274 273 273 273 274 273 273 275 277 276 274 275 275
287 286 287 286 286 285 283 282 282 281 281 282 281 280 278 275 273 273 272 272 271 271 270 270 269 268 267 269 271 273 274 273 273 274 274 276 275 277 278 276 276 274 276
285 284 284 283 283 281 281 281 281 280 282 282 279 277 275 273 273 272 271 270 269 269 267 267 268 267 268 268 271 273 273 273 273 274 274 275 276 277 278 277 275 274 276
282 283 282 281 282 281 280 280 279 282 279 278 276 274 272 272 270 268 268 267 267 266 266 266 267 269 268 269 271 273 274 275 274 273 274 275 276 275 275 274 274 275 274
281 281 281 280 280 280 280 280 281 277 275 274 272 270 269 269 268 267 267 267 267 267 268 268 268 269 269 270 271 272 274 275 274 275 275 274 272 272 271 271 271 270 269
280 280 278 278 279 279 278 280 276 274 272 272 270 268 267 267 266 268 268 268 268 268 268 268 268 268 269 270 271 272 273 274 275 274 270 270 269 269 269 267 268 267 267
279 278 278 278 279 279 278 277 274 272 272 271 269 269 268 267 268 268 269 268 269 269 268 267 267 268 269 271 272 274 274 275 275 271 268 266 265 265 266 266 266 266 266
278 277 277 277 278 276 275 271 270 270 271 270 269 269 269 268 268 268 268 270 271 271 272 273 273 273 272 274 274 274 275 275 272 268 264 263 264 264 264 264 264 265 265
Wind_Speed
5 6 7 7 7 8 9 9 9 8 6 7 8 9 10 9 10 10 14 14 13 13 11 9 9 8 9 9 9 5 5 5 7 4 3 3 2 1 1 2 2 4 4
7 7 8 8 8 9 9 10 11 10 8 7 7 8 8 9 9 9 12 14 14 14 12 11 10 11 8 12 12 12 6 6 8 6 5 4 2 3 3 4 4 6 5
11 9 8 8 8 9 8 9 11 12 11 12 10 10 10 9 9 9 10 12 14 14 14 14 12 12 10 10 12 12 13 7 7 10 6 5 4 10 2 6 5 9 8
9 9 10 9 8 7 7 8 9 11 10 10 10 11 10 10 8 8 8 10 12 13 13 13 12 12 9 11 10 10 10 10 9 5 8 6 4 5 7 4 9 5 12
10 10 9 7 6 5 6 8 11 11 11 12 11 11 13 9 8 7 10 10 10 11 12 12 12 11 8 10 11 10 11 8 7 7 7 6 6 2 7 10 11 10 10
12 9 7 6 6 5 6 8 10 11 10 12 13 14 14 11 9 8 7 6 6 7 10 11 10 10 9 9 8 9 10 8 7 6 5 5 5 7 6 10 12 13 8
14 13 12 9 7 7 7 7 10 11 10 13 12 12 12 12 11 8 6 7 6 6 9 9 9 7 8 8 7 8 7 7 6 7 5 5 5 5 7 9 11 11 11
15 14 14 11 10 9 8 9 10 11 10 12 13 11 10 7 7 7 7 6 6 6 6 6 6 6 7 6 6 4 4 6 5 7 6 6 6 6 7 8 10 12 11
17 17 15 13 12 11 11 11 11 11 10 11 10 10 9 9 9 8 7 6 6 5 5 5 5 5 6 6 6 5 5 5 6 6 6 7 6 6 7 8 8 10 13
18 16 14 14 12 12 11 10 10 11 10 10 9 8 9 8 8 7 7 7 6 5 4 4 4 5 5 6 6 5 5 6 5 6 8 8 7 8 8 8 8 9 11
20 17 15 14 13 12 12 11 10 11 10 9 9 10 8 9 7 7 6 6 6 4 4 4 4 5 5 5 5 5 6 7 7 7 8 10 10 8 9 9 9 10 10
18 18 16 16 15 14 13 13 12 11 11 10 10 10 9 9 8 7 6 5 5 4 4 3 3 4 5 5 5 6 6 7 9 9 10 11 9 12 11 9 12 12 13
20 17 17 16 15 15 14 14 14 13 12 12 12 11 10 10 9 8 7 5 4 4 3 2 3 4 4 5 5 7 8 8 9 9 10 11 12 12 11 12 12 12 12
19 18 16 16 15 14 14 14 14 14 13 13 12 13 12 11 9 8 7 5 4 4 3 1 1 3 4 5 5 7 8 8 8 9 10 11 12 13 14 13 14 13 12
20 20 17 16 15 15 15 14 14 15 14 14 14 14 12 10 9 8 6 5 4 3 2 2 1 3 4 3 7 8 8 9 10 10 10 11 13 18 16 11 13 15 12
18 16 15 14 15 16 15 14 15 14 14 15 15 12 10 9 8 7 7 6 5 5 4 3 2 3 3 6 9 10 9 9 10 11 11 11 13 14 18 19 21 19 14
17 16 14 13 12 14 13 15 14 13 13 12 9 9 9 9 9 8 7 7 6 4 4 4 4 4 5 7 10 11 8 9 9 11 11 11 9 13 14 18 21 20 22
13 10 9 10 9 9 12 11 11 11 11 11 10 9 10 10 10 9 8 6 5 5 5 5 5 4 5 8 10 12 10 9 10 11 12 13 14 14 16 17 17 17 16
9 7 8 7 8 10 10 9 9 9 10 11 12 11 11 10 11 9 8 6 5 6 6 5 5 5 5 8 11 11 9 8 10 11 12 13 16 20 24 18 17 17 17
6 7 7 6 7 7 8 9 8 9 11 12 12 11 11 11 10 9 8 5 5 6 5 5 5 5 6 9 10 10 7 9 9 11 12 15 18 24 26 18 17 17 14
6 4 6 7 8 7 8 8 7 10 11 7 8 9 10 9 9 8 6 6 6 5 5 6 6 7 7 7 10 11 8 8 9 9 10 10 21 25 27 29 17 18 21
5 7 6 8 6 7 8 7 9 10 7 8 9 9 9 8 7 7 6 6 6 6 6 6 6 5 6 8 9 11 13 14 10 11 9 11 24 28 28 23 25 26 21
5 4 6 5 5 6 9 10 11 7 8 8 8 8 8 7 7 8 7 6 6 6 6 6 5 5 4 5 10 12 14 15 11 10 13 21 22 22 17 20 23 16 9
5 4 5 6 8 8 9 11 5 7 8 8 8 8 8 8 7 6 6 6 7 6 6 6 6 5 5 5 5 6 8 12 11 7 6 12 14 14 14 11 12 9 9
4 3 6 8 11 6 8 6 6 8 7 7 7 8 7 8 8 8 7 7 7 7 6 6 6 6 7 6 9 11 8 8 7 7 6 8 8 8 9 9 9 9 9
4 5 7 7 6 4 4 5 6 8 9 8 7 7 7 7 6 6 6 14 15 15 17 18 13 8 14 15 13 16 16 13 12 5 6 7 7 8 9 9 10 9 10
Wind_Direction
71 59 57 61 79 69 74 69 74 73 93 89 85 73 68 64 60 54 48 44 40 40 45 53 49 51 44 36 22 23 26 33 1 304 294 277 266 296 341 9 16 16 26
116 85 68 66 72 78 81 77 72 68 74 83 90 84 86 69 68 62 55 50 49 50 50 51 47 38 45 40 31 24 4 23 19 346 294 325 237 54 288 333 2 2 349
140 122 99 82 80 74 78 96 97 92 87 97 105 108 106 91 74 58 56 50 55 52 53 55 52 50 49 42 33 24 25 17 27 37 359 330 338 337 38 339 1 345 347
148 136 127 106 84 73 80 89 97 102 104 118 113 102 98 98 81 77 69 62 53 57 56 56 56 57 52 48 42 37 36 25 25 11 15 5 332 332 315 329 328 335 327
160 147 131 111 99 100 93 90 93 87 90 95 99 102 102 103 105 97 87 75 66 59 56 56 57 54 49 52 49 44 40 37 31 25 4 355 339 357 309 307 326 320 326
166 153 140 137 120 104 100 100 97 93 96 99 102 108 117 120 118 113 98 83 71 61 56 59 56 52 53 43 41 43 40 32 31 14 12 3 344 333 320 310 312 314 316
174 168 166 166 153 144 128 118 112 107 109 106 104 107 111 115 115 115 110 106 85 67 53 51 49 45 41 37 32 33 32 25 15 5 347 335 320 315 307 305 304 304 309
178 179 176 174 170 167 156 141 135 127 131 122 119 120 116 107 99 97 96 90 88 77 65 62 55 44 36 31 25 31 20 3 1 350 339 324 318 316 310 304 304 303 296
183 184 181 179 175 178 174 160 153 145 142 129 130 123 118 118 116 114 113 107 107 104 94 74 62 44 34 20 6 9 7 354 350 338 334 323 319 316 310 302 296 295 299
187 186 185 181 181 182 177 170 164 160 147 141 135 128 127 124 125 129 125 123 123 125 108 79 52 40 24 13 358 354 355 344 347 336 329 325 323 317 309 304 298 291 288
188 187 187 185 186 181 179 175 177 166 160 156 145 146 145 141 143 145 143 139 135 126 95 61 43 25 9 360 345 351 344 339 330 326 323 317 318 309 306 303 297 290 288
190 190 188 187 186 186 181 181 184 180 175 168 166 166 157 163 164 158 149 150 141 122 89 63 34 10 358 345 342 337 334 332 331 331 324 318 320 311 307 300 296 291 290
192 193 193 192 191 191 187 187 191 188 180 178 179 176 178 180 175 168 162 152 146 126 103 64 18 353 336 330 332 334 328 327 323 320 315 314 314 308 309 305 301 301 298
194 196 197 199 199 194 191 192 192 192 185 187 188 190 190 190 181 170 162 162 160 146 147 134 325 320 323 315 327 318 317 314 312 312 312 311 309 308 311 304 300 297 297
197 199 199 200 197 198 197 196 199 192 188 191 196 201 194 186 177 164 165 161 173 175 178 193 250 301 303 316 320 319 318 315 313 312 309 306 311 303 297 297 301 301 299
198 197 199 198 201 202 202 197 201 195 192 197 204 201 188 176 175 170 177 180 187 196 195 201 240 279 281 306 311 318 312 306 305 308 308 305 304 301 305 298 297 295 294
190 188 191 200 203 204 198 199 195 192 191 194 195 182 176 182 186 181 186 197 201 202 220 218 232 257 281 291 306 306 296 299 302 302 305 307 304 302 300 300 298 293 286
181 185 195 194 195 193 198 197 192 185 186 197 194 183 184 191 186 188 199 199 202 221 225 230 232 255 275 291 300 302 297 297 297 298 298 299 302 303 302 294 285 281 280
179 186 185 183 179 192 190 175 168 173 185 201 200 191 189 187 189 196 197 199 209 224 231 222 237 253 277 291 301 305 300 292 294 294 295 298 299 295 294 295 294 286 276
162 180 174 170 179 177 157 162 178 178 203 204 204 189 183 185 186 191 189 193 212 230 234 240 253 260 271 285 291 296 289 295 300 299 294 288 296 303 303 299 292 290 305
174 149 172 185 196 155 156 186 168 202 213 185 169 175 182 177 179 175 183 193 212 231 236 252 255 257 255 267 283 288 289 291 298 300 304 303 305 308 315 313 307 302 308
178 193 185 208 196 163 169 185 195 216 159 168 174 177 167 168 168 172 182 202 214 228 239 250 261 246 254 258 277 287 287 295 301 296 298 306 320 321 315 316 310 310 318
204 195 204 214 186 179 189 194 219 160 155 164 171 164 162 170 168 181 196 209 214 234 242 245 257 258 252 266 280 288 289 295 296 293 309 327 319 322 320 320 320 329 320
209 187 186 222 223 203 202 225 135 147 157 173 171 166 175 181 184 197 207 216 221 228 235 242 252 260 263 269 268 283 286 275 291 319 321 318 324 320 317 317 328 327 322
202 193 210 227 237 189 202 193 165 153 175 176 175 181 190 194 196 213 215 222 231 231 236 234 235 250 266 268 272 285 296 295 316 345 329 324 320 321 321 320 320 322 322
190 208 221 228 234 199 201 174 168 168 168 179 180 189 193 195 207 214 228 235 237 233 237 245 245 244 240 268 291 285 295 318 339 336 310 308 308 311 316 316 318 318 317